Hartford, CT

1:08 AM EDT on July 23, 2017 (GMT -0400)
Hartford-brainard

Weather History for KHFD - October, 2011

Change the Weather History Date:

Friday, October 28, 2011

  Actual Average Record
Temperature  
Mean Temperature 42 °F -  
Max Temperature 48 °F 57 °F 78 °F (1971)
Min Temperature 35 °F 36 °F 18 °F (1940)
Degree Days  
Heating Degree Days 24    
Moisture  
Dew Point 28 °F    
Average Humidity 62    
Maximum Humidity 87    
Minimum Humidity 41    
Precipitation  
Precipitation 0.00 in - - ()
Sea Level Pressure  
Sea Level Pressure 30.16 in    
Wind  
Wind Speed 7 mph (NNW)    
Max Wind Speed 14 mph    
Max Gust Speed 18 mph    
Visibility 10 miles    
Events      
Averages and records for this station are not official NWS values.
T = Trace of Precipitation, MM = Missing Value Source: NWS Daily Summary

Daily Weather History Graph

Daily Weather History Graph

Search for Another Location

Airport or City:

Trip Planner

Search our weather history database for the weather conditions in past years. The results will help you decide how hot, cold, wet, or windy it might be!

Date:

Astronomy

Oct. 28, 2011 Rise Set
Actual Time 7:17 AM EDT 5:50 PM EDT
Civil Twilight 6:48 AM EDT 6:19 PM EDT
Nautical Twilight 6:16 AM EDT 6:51 PM EDT
Astronomical Twilight 5:43 AM EDT 7:24 PM EDT
Moon 9:32 AM EDT (10/28) 7:08 PM EDT (10/28)
Length of Visible Light 11h 30m
Length of Day
10h 33m
Waxing Crescent, 5% of the Moon is Illuminated
Oct 28
Waxing Crescent
Nov 2
First Quarter
Nov 10
Full
Nov 18
Last Quarter
Nov 25
New

Hourly Weather History & Observations

Time (EDT) Temp. Windchill Dew Point Humidity Pressure Visibility Wind Dir Wind Speed Gust Speed Precip Events Conditions
12:11 AM 37.4 °F 32.1 °F 33.8 °F 87% 29.93 in 10.0 mi North 6.9 mph - N/A   Overcast
12:53 AM 37.9 °F 32.1 °F 33.1 °F 83% 29.96 in 10.0 mi North 8.1 mph - N/A   Mostly Cloudy
1:53 AM 37.0 °F 32.4 °F 30.9 °F 79% 29.99 in 10.0 mi NNW 5.8 mph - N/A   Clear
2:53 AM 36.0 °F 30.3 °F 28.9 °F 76% 30.01 in 10.0 mi NNW 6.9 mph - N/A   Clear
3:53 AM 35.6 °F 28.6 °F 28.4 °F 75% 30.03 in 10.0 mi NNW 9.2 mph - N/A   Clear
4:53 AM 36.0 °F 30.3 °F 28.0 °F 73% 30.07 in 10.0 mi NW 6.9 mph - N/A   Clear
5:53 AM 35.1 °F 32.2 °F 27.0 °F 72% 30.10 in 10.0 mi NW 3.5 mph - N/A   Clear
6:53 AM 35.1 °F 30.1 °F 27.0 °F 72% 30.12 in 10.0 mi NW 5.8 mph - N/A   Clear
7:53 AM 36.0 °F 30.3 °F 27.0 °F 70% 30.14 in 10.0 mi NNW 6.9 mph - N/A   Clear
8:53 AM 37.9 °F 33.5 °F 27.0 °F 65% 30.18 in 10.0 mi NW 5.8 mph - N/A   Clear
9:53 AM 39.9 °F 33.9 °F 26.1 °F 58% 30.19 in 10.0 mi North 9.2 mph - N/A   Clear
10:53 AM 42.1 °F 38.4 °F 26.1 °F 53% 30.21 in 10.0 mi North 5.8 mph - N/A   Clear
11:53 AM 45.0 °F 39.7 °F 26.1 °F 48% 30.20 in 10.0 mi NNW 10.4 mph - N/A   Clear
12:53 PM 46.9 °F - 25.0 °F 42% 30.20 in 10.0 mi NW 12.7 mph 18.4 mph N/A   Clear
1:53 PM 48.0 °F - 25.0 °F 41% 30.19 in 10.0 mi NNW 13.8 mph 17.3 mph N/A   Clear
2:53 PM 46.4 °F 40.4 °F 24.8 °F 43% 30.18 in 10.0 mi NNW 13.8 mph - N/A   Clear
3:53 PM 48.0 °F - 25.0 °F 41% 30.21 in 10.0 mi NNW 11.5 mph 18.4 mph N/A   Clear
4:53 PM 46.0 °F 41.9 °F 26.1 °F 46% 30.20 in 10.0 mi North 8.1 mph - N/A   Clear
5:53 PM 44.1 °F 40.1 °F 26.1 °F 49% 30.22 in 10.0 mi NNW 6.9 mph - N/A   Clear
6:53 PM 43.0 °F 39.5 °F 27.0 °F 53% 30.25 in 10.0 mi NW 5.8 mph - N/A   Clear
7:53 PM 43.0 °F 41.3 °F 27.0 °F 53% 30.26 in 10.0 mi NW 3.5 mph - N/A   Clear
8:53 PM 42.8 °F 40.1 °F 26.6 °F 53% 30.26 in 10.0 mi NW 4.6 mph - N/A   Clear
9:53 PM 39.0 °F 36.8 °F 32.0 °F 76% 30.28 in 10.0 mi SE 3.5 mph - N/A   Clear
10:53 PM 39.9 °F - 33.1 °F 77% 30.27 in 10.0 mi Calm Calm - N/A   Clear
11:53 PM 39.9 °F - 33.1 °F 77% 30.27 in 10.0 mi Calm Calm - N/A   Clear